Change the Weather History Date:

Monday, May 27, 2013

  Actual Average (LRAR) Record (LRAR)
Temperature  
Mean Temperature 52 °F -  
Max Temperature 59 °F 77 °F 87 °F (2000)
Min Temperature 46 °F 56 °F 41 °F (1997)
Degree Days  
Heating Degree Days 12    
Growing Degree Days 2 (Base 50)    
Moisture  
Dew Point 50 °F    
Average Humidity 89    
Maximum Humidity 100    
Minimum Humidity 72    
Precipitation  
Precipitation 0.35 in 0.09 in - ()
Sea Level Pressure  
Sea Level Pressure 29.85 in    
Wind  
Wind Speed 9 mph ()    
Max Wind Speed 18 mph    
Max Gust Speed -    
Visibility 6.2 miles    
Events Rain , Thunderstorm    
Averages and records for this station are not official NWS values.
T = Trace of Precipitation, MM = Missing Value Source: Averaged Metar Reports

Daily Weather History Graph

Daily Weather History Graph

Search for Another Location

Airport or City:

Trip Planner

Search our weather history database for the weather conditions in past years. The results will help you decide how hot, cold, wet, or windy it might be!

Date:

Astronomy

May. 27, 2013 Rise Set
Actual Time 4:54 AM CEST 8:19 PM CEST
Civil Twilight 4:17 AM CEST 8:56 PM CEST
Nautical Twilight 3:29 AM CEST 9:45 PM CEST
Astronomical Twilight 2:26 AM CEST 10:48 PM CEST
Moon 10:40 PM CEST (5/27) 7:12 AM CEST (5/27)
Length of Visible Light 16h 38m
Length of Day
15h 24m
Waning Gibbous, 93% of the Moon is Illuminated
May 27
Waning Gibbous
May 31
Last Quarter
Jun 8
New
Jun 16
First Quarter
Jun 23
Full

Hourly Weather History & Observations

Time (CEST) Temp. Dew Point Humidity Pressure Visibility Wind Dir Wind Speed Gust Speed Precip Events Conditions
12:45 AM 50.0 °F 48.2 °F 94% 29.83 in - West 10.4 mph - N/A   Clear
1:45 AM 50.0 °F 44.6 °F 82% 29.83 in - West 12.7 mph - N/A   Clear
2:00 AM 51 °F 45 °F 74% 29.83 in 19 mi West 11.2 mph - -   Partly Cloudy
2:45 AM 50.0 °F 42.8 °F 76% 29.83 in - WNW 9.2 mph - N/A   Clear
3:45 AM 48.2 °F 42.8 °F 82% 29.83 in - West 4.6 mph - N/A   Clear
4:45 AM 48.2 °F 42.8 °F 82% 29.83 in - South 4.6 mph - N/A   Clear
5:45 AM 48.2 °F 48.2 °F 100% 29.83 in - South 6.9 mph - N/A   Clear
6:15 AM 50.0 °F 48.2 °F 94% 29.83 in - South 6.9 mph - N/A   Clear
6:45 AM 50.0 °F 50.0 °F 100% 29.83 in - South 9.2 mph - N/A   Clear
7:15 AM 51.8 °F 50.0 °F 94% 29.83 in - South 10.4 mph - N/A   Clear
7:35 AM 51.8 °F 50.0 °F 94% 29.86 in 6.2 mi South 10.4 mph - N/A Rain Light Rain
7:45 AM 51.8 °F 50.0 °F 94% 29.86 in 6.2 mi SSW 10.4 mph - N/A Rain Light Rain
8:00 AM 52 °F 49 °F 88% 29.85 in 9 mi SSW 11.2 mph - - Rain Light Rain
8:15 AM 51.8 °F 48.2 °F 88% 29.86 in 5.6 mi SW 11.5 mph - N/A Rain Light Rain
8:45 AM 51.8 °F 48.2 °F 88% 29.86 in 5.0 mi SW 10.4 mph - N/A Rain Rain
9:15 AM 51.8 °F 50.0 °F 94% 29.86 in 6.2 mi SW 12.7 mph - N/A Rain Light Rain
9:45 AM 51.8 °F 50.0 °F 94% 29.86 in 6.2 mi SW 12.7 mph - N/A Rain Light Rain
10:15 AM 51.8 °F 50.0 °F 94% 29.86 in 6.2 mi SW 10.4 mph - N/A Rain Light Rain
10:45 AM 53.6 °F 51.8 °F 94% 29.86 in 6.2 mi SW 11.5 mph - N/A Rain Light Rain
11:15 AM 55.4 °F 51.8 °F 88% 29.86 in 6.2 mi SW 12.7 mph - N/A Rain Light Rain
11:45 AM 55.4 °F 50.0 °F 82% 29.86 in 6.2 mi SW 12.7 mph - N/A Rain Light Rain Showers
12:15 PM 57.2 °F 50.0 °F 77% 29.86 in 6.2 mi SW 11.5 mph - N/A   Mostly Cloudy
12:45 PM 55.4 °F 51.8 °F 88% 29.86 in 6.2 mi SSW 18.4 mph - N/A Rain Light Rain Showers
1:15 PM 57.2 °F 51.8 °F 82% 29.86 in 6.2 mi SW 15.0 mph - N/A   Mostly Cloudy
1:45 PM 57.2 °F 51.8 °F 82% 29.86 in 6.2 mi SW 17.3 mph - N/A Rain Light Rain
2:00 PM 57 °F 51 °F 75% 29.86 in 9 mi SW 15.7 mph - - Rain Light Rain
2:15 PM 59.0 °F 50.0 °F 72% 29.86 in 6.2 mi SW 15.0 mph - N/A   Mostly Cloudy
2:45 PM 57.2 °F 50.0 °F 77% 29.86 in 6.2 mi SW 11.5 mph - N/A   Scattered Clouds
3:15 PM 59.0 °F 51.8 °F 77% 29.86 in 6.2 mi SSW 11.5 mph - N/A   Scattered Clouds
3:45 PM 59.0 °F 51.8 °F 77% 29.86 in 5.0 mi SSW 11.5 mph - N/A Rain Light Rain Showers
4:11 PM 57.2 °F 53.6 °F 88% 29.86 in 3.7 mi SW 8.1 mph - N/A Thunderstorm Thunderstorm
4:15 PM 57.2 °F 53.6 °F 88% 29.86 in 4.3 mi SW 8.1 mph - N/A Thunderstorm Thunderstorm
4:45 PM 57.2 °F 51.8 °F 82% 29.83 in 6.2 mi SSW 5.8 mph - N/A   Scattered Clouds
5:15 PM 57.2 °F 50.0 °F 77% 29.83 in 6.2 mi SSW 6.9 mph - N/A   Scattered Clouds
5:45 PM 57.2 °F 51.8 °F 82% 29.86 in 2.8 mi NNW 5.8 mph - N/A Rain Rain Showers
6:15 PM 53.6 °F 51.8 °F 94% 29.86 in 4.3 mi SW 4.6 mph - N/A Rain Light Rain Showers
6:45 PM 53.6 °F 51.8 °F 94% 29.86 in 6.2 mi NW 3.5 mph - N/A Rain Rain
7:15 PM 53.6 °F 53.6 °F 100% 29.86 in 6.2 mi SE 2.3 mph - N/A Rain Light Rain
7:45 PM 53.6 °F 53.6 °F 100% 29.86 in 6.2 mi SE 2.3 mph - N/A Rain Light Rain Showers
8:00 PM 53 °F 53 °F 100% 29.86 in 7 mi SE 2.2 mph - - Rain Light Rain Showers
8:15 PM 53.6 °F 53.6 °F 100% 29.86 in 6.2 mi SE 4.6 mph - N/A Rain Light Rain Showers
8:45 PM 53.6 °F 53.6 °F 100% 29.86 in 6.2 mi SSE 5.8 mph - N/A Rain Light Rain Showers
9:15 PM 53.6 °F 51.8 °F 94% 29.86 in 6.2 mi SSE 4.6 mph - N/A Rain Light Rain Showers
9:45 PM 53.6 °F 51.8 °F 94% 29.86 in 4.3 mi SSE 5.8 mph - N/A Rain Light Rain Showers
10:45 PM 53.6 °F 53.6 °F 100% 29.86 in 4.3 mi East 1.2 mph - N/A Rain Light Rain
11:45 PM 53.6 °F 53.6 °F 100% 29.89 in 3.7 mi WNW 2.3 mph - N/A Rain Light Rain